Showing default

COSMOS 2251, 22675

Orbit data source: Space-Track

COSMOS 2251, 22675 is a payload satellite owned by VKS (CIS) in LEO that was launched on Wed, 16 Jun 1993 UTC via a KOSMOS 11K65M launch vehicle from the Plesetsk Missile And Space Complex (PKMTR). Payload-class satellites include a variety of spacecraft equipped with specific instruments for various scientific and technological missions. These include communications satellites like Starlink; space stations such as the ISS; scientific satellites like the Hubble; Earth observation satellites from companies like Planet Labs, Umbra, and HawkEye 360; GPS; miniature CubeSats for education and research; and military/defense satellites.

Loading next visibility...
Identifier
22675, 1993-036A
Orbit
LEO
Country
Flag of CISCIS
Related business
Manufacturer
NPO PM
Mission
Defense Communications
Bus & Motor
STRELA-2M, Unknown motor
Mass
800 kg wet, 800 kg dry
Launch date (UTC)
1993-06-16 (33 years ago)
Launch vehicle
KOSMOS 11K65M
Launch site
Plesetsk Missile And Space Complex (PKMTR)
Object type
Payload
Rocket body
Debris
Shape & HBR
Cyl, 1.5 m
Radar Cross Section
6.283 m², Large (>1 m²)

Expand to show TLE details & history
Last TLE update: 8 hours ago

TLE from 8 hours ago
0 COSMOS 2251
1 22675U 93036A   26124.13817889  .00000087  00000-0  41014-4 0  9992
2 22675  74.0406  55.6978 0023691 106.6352 253.7403 14.33247236718138
Epoch: 2026-05-04T03:18Z
TLE epoch observation values (Epoch: 2026-05-04T03:18:58.656Z)
Latitude
-0.00001°
Longitude
143.92172°
Altitude
788.292 km
Speed
7.457 km/s
True Right ascension
03h 42m 47s
True Declination
0° 00' 00"
Sunlit
Object was in daylight at epoch
Visualization orbit readout
Latitude
Unknown
Longitude
Unknown
Altitude
Unknown
Speed
Unknown
Apparent Right ascension
Unknown
Apparent Declination
Unknown
Sunlit
N/A
Visualization observer readout
Local Sidereal Time
19:00:47
Azimuth
Unknown
Elevation
Unknown
Doppler factor
Unknown
Orbital elements
Apogee altitude
795.479 km
Perigee altitude
761.569 km
Semi-major axis
7,156.661 km
Eccentricity
0.00237
Inclination
74.0406°
RAAN
55.6978°
Arg. of periapsis
106.6352°
True anomaly
253.4799°
Mean anomaly
253.7403°
Eccentric anomaly
253.61008°
Mean motion
3.5849 °/min
Orbital period
100.42 mins
BSTAR
0.000041014
Loading maneuver chart data...
Computing Atmospheric mass density...

Documentation

Showing up to 5 results
|